| time (UTC) | temp C | wind direction | speed KPH | gust KPH | rain 1hr cm | rain 24hr cm | rain mn cm | humidity % | barometer mb |
| 20260504044548 | 16 | 254 | 0.0 | 17.7 | 0.00 | 0.00 | 0.00 | 29 | 1001.3 |
| 20260504043048 | 16 | 269 | 1.6 | 12.9 | 0.00 | 0.00 | 0.00 | 29 | 1001.4 |
| 20260504041547 | 16 | 243 | 1.6 | 14.5 | 0.00 | 0.00 | 0.00 | 28 | 1001.5 |
| 20260504040100 | 16 | 242 | 1.6 | 12.9 | 0.00 | 0.00 | 0.00 | 27 | 1001.7 |
| 20260504034547 | 17 | 245 | 0.0 | 16.1 | 0.00 | 0.00 | 0.00 | 28 | 1001.8 |
| 20260504033048 | 17 | 255 | 1.6 | 12.9 | 0.00 | 0.00 | 0.00 | 27 | 1002.0 |
| 20260504031554 | 17 | 240 | 0.0 | 14.5 | 0.00 | 0.00 | 0.00 | 26 | 1002.0 |
| 20260504030044 | 18 | 266 | 0.0 | 11.3 | 0.00 | 0.00 | 0.00 | 25 | 1002.0 |
| 20260504024544 | 18 | 250 | 0.0 | 3.2 | 0.00 | 0.00 | 0.00 | 24 | 1002.0 |
| 20260504023042 | 18 | 261 | 0.0 | 4.8 | 0.00 | 0.00 | 0.00 | 24 | 1001.9 |
| 20260504021542 | 18 | 244 | 0.0 | 8.0 | 0.00 | 0.00 | 0.00 | 23 | 1001.9 |
| 20260504020043 | 18 | 360 | 0.0 | 8.0 | 0.00 | 0.00 | 0.00 | 23 | 1001.7 |
| 20260504014543 | 18 | 264 | 1.6 | 6.4 | 0.00 | 0.00 | 0.00 | 23 | 1001.6 |
| 20260504013043 | 18 | 360 | 1.6 | 6.4 | 0.00 | 0.00 | 0.00 | 23 | 1001.5 |
| 20260504011541 | 19 | 263 | 0.0 | 9.7 | 0.00 | 0.00 | 0.00 | 23 | 1001.6 |
| 20260504010037 | 19 | 263 | 1.6 | 17.7 | 0.00 | 0.00 | 0.00 | 24 | 1001.8 |
| 20260504004536 | 18 | 273 | 1.6 | 19.3 | 0.00 | 0.00 | 0.00 | 24 | 1002.0 |
| 20260504003035 | 18 | 297 | 1.6 | 12.9 | 0.00 | 0.00 | 0.00 | 25 | 1002.2 |
| 20260504001540 | 19 | 38 | 0.0 | 6.4 | 0.00 | 0.00 | 0.00 | 26 | 1002.2 |
| 20260504000034 | 19 | 272 | 0.0 | 0.0 | 0.00 | 0.00 | 0.00 | 25 | 1002.3 |
| 20260503234551 | 19 | 221 | 0.0 | 17.7 | 0.00 | 0.00 | 0.00 | 26 | 1002.7 |
| 20260503233039 | 19 | 294 | 0.0 | 0.0 | 0.00 | 0.00 | 0.00 | 23 | 1002.4 |
| 20260503231534 | 19 | 294 | 0.0 | 8.0 | 0.00 | 0.00 | 0.00 | 25 | 1002.1 |
| 20260503230032 | 18 | 230 | 0.0 | 37.0 | 0.00 | 0.00 | 0.00 | 33 | 1002.4 |
| 20260503224530 | 20 | 277 | 1.6 | 8.0 | 0.00 | 0.00 | 0.00 | 22 | 1002.1 |
| 20260503223030 | 21 | 360 | 0.0 | 6.4 | 0.00 | 0.00 | 0.00 | 19 | 1001.9 |
| 20260503221535 | 20 | 288 | 1.6 | 6.4 | 0.00 | 0.00 | 0.00 | 19 | 1002.3 |
| 20260503220027 | 21 | 289 | 3.2 | 14.5 | 0.00 | 0.00 | 0.00 | 18 | 1002.4 |
| 20260503214526 | 22 | 234 | 0.0 | 1.6 | 0.00 | 0.00 | 0.00 | 17 | 1002.5 |
| 20260503213025 | 22 | 245 | 3.2 | 17.7 | 0.00 | 0.00 | 0.00 | 16 | 1002.9 |
| 20260503211523 | 22 | 198 | 1.6 | 9.7 | 0.00 | 0.00 | 0.00 | 18 | 1003.1 |
| 20260503210020 | 22 | 257 | 1.6 | 19.3 | 0.00 | 0.00 | 0.00 | 18 | 1003.2 |
| 20260503204523 | 22 | 311 | 1.6 | 16.1 | 0.00 | 0.00 | 0.00 | 16 | 1003.3 |
| 20260503203020 | 22 | 274 | 0.0 | 4.8 | 0.00 | 0.00 | 0.00 | 16 | 1003.5 |
| 20260503201517 | 22 | 292 | 0.0 | 8.0 | 0.00 | 0.00 | 0.00 | 15 | 1003.6 |
| 20260503200016 | 22 | 315 | 3.2 | 16.1 | 0.00 | 0.00 | 0.00 | 17 | 1003.8 |
| 20260503194514 | 22 | 283 | 3.2 | 14.5 | 0.00 | 0.00 | 0.00 | 15 | 1003.9 |
| 20260503193013 | 22 | 315 | 1.6 | 12.9 | 0.00 | 0.00 | 0.00 | 16 | 1004.2 |
| 20260503191511 | 21 | 360 | 1.6 | 14.5 | 0.00 | 0.00 | 0.00 | 15 | 1004.5 |
| 20260503190012 | 22 | 360 | 1.6 | 12.9 | 0.00 | 0.00 | 0.00 | 16 | 1004.7 |
| 20260503184513 | 22 | 300 | 1.6 | 12.9 | 0.00 | 0.00 | 0.00 | 15 | 1005.1 |
| 20260503183004 | 21 | 290 | 1.6 | 14.5 | 0.00 | 0.00 | 0.00 | 16 | 1005.4 |
| 20260503181502 | 22 | 360 | 0.0 | 14.5 | 0.00 | 0.00 | 0.00 | 15 | 1005.9 |
| 20260503180105 | 22 | 301 | 0.0 | 9.7 | 0.00 | 0.00 | 0.00 | 16 | 1006.3 |
| 20260503174559 | 21 | 290 | 1.6 | 8.0 | 0.00 | 0.00 | 0.00 | 16 | 1006.7 |
| 20260503173052 | 20 | 248 | 1.6 | 8.0 | 0.00 | 0.00 | 0.00 | 18 | 1006.9 |
| 20260503171550 | 20 | 263 | 1.6 | 14.5 | 0.00 | 0.00 | 0.00 | 18 | 1007.2 |
| 20260503081530 | 12 | 240 | 0.0 | 11.3 | 0.00 | 0.00 | 0.00 | 31 | 1009.3 |
| 20260503071521 | 12 | 265 | 0.0 | 4.8 | 0.00 | 0.00 | 0.00 | 28 | 1010.0 |
| 20260503054510 | 11 | 218 | 0.0 | 4.8 | 0.00 | 0.00 | 0.00 | 25 | 1010.3 |
| 20260503053010 | 11 | 253 | 0.0 | 3.2 | 0.00 | 0.00 | 0.00 | 26 | 1010.3 |
| 20260503051508 | 11 | 253 | 0.0 | 1.6 | 0.00 | 0.00 | 0.00 | 25 | 1010.3 |
| 20260503050020 | 12 | 257 | 0.0 | 3.2 | 0.00 | 0.00 | 0.00 | 25 | 1010.4 |